Flag for South Africa Weather past 2 weeks in Stellenbosch, South Africa

Now
68 °F

Partly cloudy.


Feels Like: 68 °F
Forecast: 62 / 83 °F
Wind: 13 mph from South

Location: Cape Town International Airport

Current Time: Mar 4, 2015 at 9:48:36 PM

Latest Report: Mar 4, 2015 at 9:00 PM


Visibility: N/A

Pressure: 30.01 "Hg

Humidity: 78%

Dew point: 61 °F

Location of StellenboschLocation

Historic Weather in Stellenbosch — Graph

°F

Stellenbosch temperature yesterday

Maximum temperature yesterday: 108 °F (at 1:00 PM)
Minimum temperature yesterday: 59 °F (at 6:00 AM)
Average temperature yesterday: 81 °F

Past Weeks' High & Low Weather Summary

 TemperatureHumidityPressure
High108 °F (Mar 3, 1:00 PM)94% (Feb 26, 5:00 AM)30.18 "Hg (Feb 26, 5:00 AM)
Low48 °F (Feb 22, 6:00 AM)11% (Mar 3, 1:00 PM)29.74 "Hg (Feb 17, 11:00 PM)
Average70 °F63%29.93 "Hg
* Reported Feb 17 8:00 PM — Mar 4 8:00 PM, Stellenbosch, Weather by CustomWeather, © 2015

Note: Actual official high and low records may vary slightly from our data, if they occured in-between our weather recording intervals... More about our weather records

Advertising

Stellenbosch weather history for previous 24 hours

 ConditionsComfort  
Time TempWeatherWind HumidityBarometerVisibility
8:00 PM
Wed, Mar 4
68 °FPartly cloudy.14 mph78%29.98 "HgN/A
7:00 PM70 °FPartly cloudy.12 mph73%29.95 "HgN/A
6:00 PM73 °FPartly sunny.8 mph65%29.92 "HgN/A
5:00 PM73 °FScattered clouds.8 mph69%29.92 "HgN/A
4:00 PM72 °FScattered clouds.18 mph69%29.92 "HgN/A
3:00 PM73 °FScattered clouds.17 mph69%29.92 "HgN/A
2:00 PM70 °FScattered clouds.12 mph78%29.92 "HgN/A
1:00 PM73 °FPartly sunny.14 mph69%29.92 "HgN/A
12:00 PM68 °FPartly sunny.16 mph78%29.92 "HgN/A
11:00 AM70 °FScattered clouds.16 mph73%29.95 "HgN/A
10:00 AM70 °FScattered clouds.20 mph73%29.92 "HgN/A
9:00 AM70 °FPassing clouds.15 mph69%29.89 "HgN/A
8:00 AM68 °FPassing clouds.13 mph78%29.89 "HgN/A
7:00 AM66 °FPartly sunny.14 mph78%29.89 "HgN/A
6:00 AM64 °FPartly sunny.18 mph83%29.92 "HgN/A
5:00 AM64 °FPassing clouds.15 mph83%29.89 "HgN/A
4:00 AM64 °FClear.8 mph78%29.86 "Hg10 mi
3:00 AM63 °FClear.9 mph83%29.89 "Hg10 mi
2:00 AM63 °FPassing clouds.12 mph83%29.89 "HgN/A
1:00 AM61 °FPassing clouds.22 mph88%29.92 "HgN/A
12:00 AM61 °FPassing clouds.24 mph88%29.89 "HgN/A
11:00 PM
Tue, Mar 3
64 °FClear.13 mph78%29.89 "Hg10 mi
10:00 PM66 °FClear.16 mph73%29.89 "Hg10 mi
9:00 PM68 °FClear.12 mph64%29.86 "Hg10 mi
Weather by CustomWeather, © 2015

See weather overviewHow to use our weather pages